| time (UTC) | temp F | wind direction | speed MPH | gust MPH | rain 1hr in | rain 24hr in | rain mn in | humidity % | barometer mb |
| 20260509012554 | 56 | 0 | 0.0 | 0.0 | 0.00 | 0.00 | 0.00 | 82 | 1013.5 |
| 20260509012054 | 57 | 0 | 0.0 | 0.0 | 0.00 | 0.00 | 0.00 | 82 | 1013.5 |
| 20260509011601 | 57 | 0 | 0.0 | 0.0 | 0.00 | 0.00 | 0.00 | 81 | 1013.6 |
| 20260509011055 | 57 | 0 | 0.0 | 0.0 | 0.00 | 0.00 | 0.00 | 81 | 1013.5 |
| 20260509010554 | 57 | 0 | 0.0 | 0.0 | 0.00 | 0.00 | 0.00 | 81 | 1013.6 |
| 20260509010057 | 57 | 0 | 0.0 | 0.0 | 0.00 | 0.00 | 0.00 | 80 | 1013.6 |
| 20260509005554 | 58 | 0 | 0.0 | 0.0 | 0.00 | 0.00 | 0.00 | 80 | 1013.5 |
| 20260509005054 | 58 | 0 | 0.0 | 0.0 | 0.00 | 0.00 | 0.00 | 79 | 1013.4 |
| 20260509004603 | 58 | 0 | 0.0 | 0.0 | 0.00 | 0.00 | 0.00 | 79 | 1013.4 |
| 20260509004054 | 59 | 0 | 0.0 | 0.0 | 0.00 | 0.00 | 0.00 | 78 | 1013.4 |
| 20260509003554 | 59 | 0 | 0.0 | 1.0 | 0.00 | 0.00 | 0.00 | 78 | 1013.6 |
| 20260509003059 | 60 | 0 | 0.0 | 1.0 | 0.00 | 0.00 | 0.00 | 78 | 1013.6 |
| 20260509002554 | 60 | 0 | 0.0 | 1.0 | 0.00 | 0.00 | 0.00 | 78 | 1013.5 |
| 20260509002054 | 60 | 0 | 0.0 | 1.0 | 0.00 | 0.00 | 0.00 | 78 | 1013.4 |
| 20260509001557 | 61 | 0 | 0.0 | 1.0 | 0.00 | 0.00 | 0.00 | 77 | 1013.4 |
| 20260509001054 | 61 | 0 | 0.0 | 1.0 | 0.00 | 0.00 | 0.00 | 77 | 1013.2 |
| 20260509000554 | 61 | 0 | 0.0 | 1.0 | 0.00 | 0.00 | 0.00 | 75 | 1013.2 |
| 20260508235554 | 62 | 0 | 0.0 | 1.0 | 0.00 | 0.00 | 0.00 | 74 | 1013.1 |
| 20260508235055 | 62 | 0 | 0.0 | 1.0 | 0.00 | 0.00 | 0.00 | 74 | 1013.2 |
| 20260508234556 | 62 | 0 | 0.0 | 1.0 | 0.00 | 0.00 | 0.00 | 74 | 1013.3 |
| 20260508234056 | 62 | 0 | 0.0 | 2.0 | 0.00 | 0.00 | 0.00 | 70 | 1013.1 |
| 20260508233555 | 63 | 0 | 0.0 | 2.0 | 0.00 | 0.00 | 0.00 | 70 | 1013.2 |
| 20260508233057 | 63 | 14 | 0.0 | 2.0 | 0.00 | 0.00 | 0.00 | 71 | 1013.2 |
| 20260508232556 | 63 | 14 | 0.0 | 2.0 | 0.00 | 0.00 | 0.00 | 71 | 1013.2 |
| 20260508232053 | 63 | 14 | 0.0 | 2.0 | 0.00 | 0.00 | 0.00 | 72 | 1013.0 |
| 20260508231555 | 63 | 14 | 0.0 | 2.0 | 0.00 | 0.00 | 0.00 | 71 | 1013.2 |
| 20260508231055 | 64 | 14 | 0.0 | 2.0 | 0.00 | 0.00 | 0.00 | 71 | 1013.2 |
| 20260508230554 | 64 | 0 | 0.0 | 2.0 | 0.00 | 0.00 | 0.00 | 68 | 1013.2 |
| 20260508230053 | 64 | 0 | 0.0 | 2.0 | 0.00 | 0.00 | 0.00 | 68 | 1013.4 |
| 20260508225552 | 64 | 0 | 0.0 | 2.0 | 0.00 | 0.00 | 0.00 | 68 | 1013.3 |
| 20260508225055 | 64 | 14 | 0.0 | 2.0 | 0.00 | 0.00 | 0.00 | 67 | 1013.3 |
| 20260508224634 | 65 | 0 | 0.0 | 2.0 | 0.00 | 0.00 | 0.00 | 68 | 1013.2 |
| 20260508224052 | 65 | 30 | 0.0 | 2.0 | 0.00 | 0.00 | 0.00 | 65 | 1013.2 |
| 20260508223552 | 65 | 0 | 0.0 | 2.0 | 0.00 | 0.00 | 0.00 | 65 | 1013.3 |
| 20260508223056 | 65 | 12 | 0.0 | 2.0 | 0.00 | 0.00 | 0.00 | 65 | 1013.1 |
| 20260508222555 | 65 | 26 | 0.0 | 3.0 | 0.00 | 0.00 | 0.00 | 67 | 1013.1 |
| 20260508222053 | 65 | 26 | 1.0 | 3.0 | 0.00 | 0.00 | 0.00 | 65 | 1012.9 |
| 20260508221554 | 65 | 29 | 0.0 | 3.0 | 0.00 | 0.00 | 0.00 | 62 | 1012.9 |
| 20260508221053 | 66 | 0 | 1.0 | 3.0 | 0.00 | 0.00 | 0.00 | 63 | 1012.9 |
| 20260508220553 | 66 | 355 | 0.0 | 2.0 | 0.00 | 0.00 | 0.00 | 66 | 1013.0 |
| 20260508220054 | 66 | 0 | 1.0 | 2.0 | 0.00 | 0.00 | 0.00 | 66 | 1013.0 |
| 20260508215552 | 66 | 0 | 0.0 | 2.0 | 0.00 | 0.00 | 0.00 | 63 | 1013.0 |
| 20260508215053 | 66 | 0 | 0.0 | 4.0 | 0.00 | 0.00 | 0.00 | 62 | 1012.9 |
| 20260508214553 | 66 | 0 | 0.0 | 4.0 | 0.00 | 0.00 | 0.00 | 61 | 1012.7 |
| 20260508214052 | 66 | 0 | 0.0 | 5.0 | 0.00 | 0.00 | 0.00 | 60 | 1012.7 |
| 20260508213552 | 67 | 355 | 1.0 | 5.0 | 0.00 | 0.00 | 0.00 | 59 | 1012.7 |
| 20260508213056 | 67 | 329 | 0.0 | 3.0 | 0.00 | 0.00 | 0.00 | 59 | 1012.8 |
| 20260508212552 | 68 | 0 | 0.0 | 1.0 | 0.00 | 0.00 | 0.00 | 61 | 1012.9 |
| 20260508212053 | 68 | 0 | 0.0 | 2.0 | 0.00 | 0.00 | 0.00 | 59 | 1012.8 |
| 20260508211554 | 68 | 0 | 0.0 | 4.0 | 0.00 | 0.00 | 0.00 | 57 | 1012.8 |
| 20260508211051 | 68 | 23 | 1.0 | 4.0 | 0.00 | 0.00 | 0.00 | 55 | 1012.9 |
| 20260508210551 | 68 | 0 | 1.0 | 4.0 | 0.00 | 0.00 | 0.00 | 57 | 1013.1 |
| 20260508210055 | 68 | 352 | 0.0 | 2.0 | 0.00 | 0.00 | 0.00 | 58 | 1013.1 |
| 20260508205553 | 68 | 0 | 0.0 | 2.0 | 0.00 | 0.00 | 0.00 | 58 | 1013.0 |
| 20260508205051 | 69 | 0 | 0.0 | 2.0 | 0.00 | 0.00 | 0.00 | 54 | 1013.0 |
| 20260508204553 | 69 | 0 | 0.0 | 2.0 | 0.00 | 0.00 | 0.00 | 56 | 1013.1 |
| 20260508204048 | 69 | 352 | 0.0 | 2.0 | 0.00 | 0.00 | 0.00 | 59 | 1012.9 |
| 20260508203551 | 69 | 0 | 0.0 | 3.0 | 0.00 | 0.00 | 0.00 | 56 | 1012.8 |
| 20260508203101 | 69 | 352 | 0.0 | 4.0 | 0.00 | 0.00 | 0.00 | 54 | 1013.0 |
| 20260508202553 | 69 | 0 | 1.0 | 4.0 | 0.00 | 0.00 | 0.00 | 54 | 1012.9 |
| 20260508202050 | 69 | 338 | 1.0 | 4.0 | 0.00 | 0.00 | 0.00 | 54 | 1012.8 |
| 20260508201602 | 68 | 0 | 0.0 | 4.0 | 0.00 | 0.00 | 0.00 | 51 | 1013.1 |
| 20260508201052 | 69 | 82 | 1.0 | 4.0 | 0.00 | 0.00 | 0.00 | 51 | 1013.1 |
| 20260508200550 | 69 | 27 | 1.0 | 4.0 | 0.00 | 0.00 | 0.00 | 49 | 1013.2 |
| 20260508200053 | 69 | 34 | 0.0 | 2.0 | 0.00 | 0.00 | 0.00 | 50 | 1013.3 |
| 20260508195555 | 69 | 332 | 0.0 | 3.0 | 0.00 | 0.00 | 0.00 | 53 | 1013.4 |
| 20260508195051 | 70 | 0 | 0.0 | 3.0 | 0.00 | 0.00 | 0.00 | 54 | 1013.6 |
| 20260508194554 | 70 | 303 | 1.0 | 3.0 | 0.00 | 0.00 | 0.00 | 49 | 1013.5 |
| 20260508194051 | 70 | 329 | 0.0 | 2.0 | 0.00 | 0.00 | 0.00 | 51 | 1013.4 |
| 20260508193554 | 70 | 0 | 0.0 | 2.0 | 0.00 | 0.00 | 0.00 | 49 | 1013.7 |
| 20260508193102 | 70 | 325 | 1.0 | 2.0 | 0.00 | 0.00 | 0.00 | 48 | 1013.6 |
| 20260508192552 | 70 | 319 | 0.0 | 2.0 | 0.00 | 0.00 | 0.00 | 53 | 1013.6 |
| 20260508192052 | 70 | 164 | 0.0 | 2.0 | 0.00 | 0.00 | 0.00 | 46 | 1013.6 |
| 20260508191555 | 70 | 226 | 0.0 | 3.0 | 0.00 | 0.00 | 0.00 | 46 | 1013.8 |
| 20260508191053 | 70 | 0 | 0.0 | 3.0 | 0.00 | 0.00 | 0.00 | 49 | 1014.0 |
| 20260508190551 | 70 | 327 | 1.0 | 3.0 | 0.00 | 0.00 | 0.00 | 50 | 1014.0 |
| 20260508190054 | 70 | 0 | 0.0 | 2.0 | 0.00 | 0.00 | 0.00 | 49 | 1014.0 |
| 20260508185553 | 70 | 5 | 0.0 | 4.0 | 0.00 | 0.00 | 0.00 | 47 | 1014.2 |
| 20260508185050 | 70 | 308 | 1.0 | 4.0 | 0.00 | 0.00 | 0.00 | 46 | 1014.3 |
| 20260508184600 | 70 | 159 | 1.0 | 3.0 | 0.00 | 0.00 | 0.00 | 45 | 1014.3 |
| 20260508184052 | 70 | 171 | 1.0 | 3.0 | 0.00 | 0.00 | 0.00 | 44 | 1014.6 |
| 20260508183551 | 70 | 306 | 1.0 | 3.0 | 0.00 | 0.00 | 0.00 | 44 | 1014.7 |
| 20260508183055 | 69 | 0 | 0.0 | 3.0 | 0.00 | 0.00 | 0.00 | 46 | 1014.5 |
| 20260508182551 | 69 | 350 | 1.0 | 3.0 | 0.00 | 0.00 | 0.00 | 48 | 1014.7 |
| 20260508182051 | 69 | 292 | 0.0 | 3.0 | 0.00 | 0.00 | 0.00 | 48 | 1014.6 |
| 20260508181558 | 69 | 0 | 1.0 | 3.0 | 0.00 | 0.00 | 0.00 | 47 | 1014.6 |
| 20260508181055 | 68 | 281 | 1.0 | 5.0 | 0.00 | 0.00 | 0.00 | 47 | 1014.6 |
| 20260508180548 | 69 | 341 | 1.0 | 5.0 | 0.00 | 0.00 | 0.00 | 44 | 1014.7 |
| 20260508180057 | 69 | 9 | 2.0 | 5.0 | 0.00 | 0.00 | 0.00 | 45 | 1014.7 |
| 20260508175549 | 69 | 349 | 0.0 | 4.0 | 0.00 | 0.00 | 0.00 | 48 | 1014.8 |
| 20260508175049 | 68 | 238 | 1.0 | 4.0 | 0.00 | 0.00 | 0.00 | 48 | 1015.1 |
| 20260508174559 | 68 | 70 | 1.0 | 3.0 | 0.00 | 0.00 | 0.00 | 46 | 1015.0 |
| 20260508174052 | 68 | 0 | 1.0 | 3.0 | 0.00 | 0.00 | 0.00 | 48 | 1015.0 |
| 20260508173554 | 67 | 25 | 1.0 | 5.0 | 0.00 | 0.00 | 0.00 | 47 | 1015.1 |
| 20260508173058 | 67 | 37 | 1.0 | 5.0 | 0.00 | 0.00 | 0.00 | 45 | 1015.1 |
| 20260508172552 | 68 | 316 | 1.0 | 5.0 | 0.00 | 0.00 | 0.00 | 51 | 1015.3 |
| 20260508172053 | 67 | 302 | 1.0 | 7.0 | 0.00 | 0.00 | 0.00 | 51 | 1015.3 |
| 20260508171559 | 67 | 0 | 1.0 | 7.0 | 0.00 | 0.00 | 0.00 | 46 | 1015.2 |
| 20260508171052 | 67 | 22 | 1.0 | 4.0 | 0.00 | 0.00 | 0.00 | 44 | 1015.3 |
| 20260508170552 | 68 | 343 | 1.0 | 6.0 | 0.00 | 0.00 | 0.00 | 48 | 1015.5 |
| 20260508170055 | 67 | 9 | 1.0 | 6.0 | 0.00 | 0.00 | 0.00 | 46 | 1015.5 |
| 20260508165551 | 67 | 0 | 1.0 | 4.0 | 0.00 | 0.00 | 0.00 | 50 | 1015.5 |
| 20260508165051 | 67 | 161 | 1.0 | 6.0 | 0.00 | 0.00 | 0.00 | 54 | 1015.7 |
| 20260508164557 | 67 | 292 | 1.0 | 6.0 | 0.00 | 0.00 | 0.00 | 62 | 1015.8 |
| 20260508164049 | 66 | 96 | 1.0 | 6.0 | 0.00 | 0.00 | 0.00 | 54 | 1015.9 |
| 20260508163553 | 66 | 340 | 1.0 | 4.0 | 0.00 | 0.00 | 0.00 | 61 | 1016.0 |
| 20260508163054 | 66 | 17 | 1.0 | 4.0 | 0.00 | 0.00 | 0.00 | 62 | 1016.0 |
| 20260508162553 | 66 | 0 | 1.0 | 4.0 | 0.00 | 0.00 | 0.00 | 59 | 1016.0 |
| 20260508162054 | 66 | 46 | 1.0 | 4.0 | 0.00 | 0.00 | 0.00 | 65 | 1016.3 |
| 20260508161600 | 66 | 141 | 2.0 | 4.0 | 0.00 | 0.00 | 0.00 | 64 | 1016.2 |
| 20260508161053 | 65 | 26 | 0.0 | 3.0 | 0.00 | 0.00 | 0.00 | 72 | 1016.2 |
| 20260508160555 | 65 | 343 | 0.0 | 3.0 | 0.00 | 0.00 | 0.00 | 71 | 1016.4 |
| 20260508160059 | 64 | 0 | 1.0 | 6.0 | 0.00 | 0.00 | 0.00 | 63 | 1016.6 |
| 20260508155553 | 64 | 0 | 1.0 | 6.0 | 0.00 | 0.00 | 0.00 | 65 | 1016.5 |
| 20260508155056 | 64 | 89 | 2.0 | 6.0 | 0.00 | 0.00 | 0.00 | 70 | 1016.6 |
| 20260508154613 | 63 | 132 | 2.0 | 6.0 | 0.00 | 0.00 | 0.00 | 71 | 1016.6 |
| 20260508154053 | 64 | 144 | 2.0 | 4.0 | 0.00 | 0.00 | 0.00 | 70 | 1016.7 |
| 20260508153554 | 64 | 329 | 0.0 | 3.0 | 0.00 | 0.00 | 0.00 | 75 | 1016.7 |
| 20260508153101 | 63 | 217 | 1.0 | 4.0 | 0.00 | 0.00 | 0.00 | 70 | 1016.7 |
| 20260508152553 | 62 | 144 | 1.0 | 4.0 | 0.00 | 0.00 | 0.00 | 73 | 1016.8 |
| 20260508152054 | 62 | 109 | 1.0 | 4.0 | 0.00 | 0.00 | 0.00 | 71 | 1016.9 |
| 20260508151558 | 62 | 156 | 1.0 | 4.0 | 0.00 | 0.00 | 0.00 | 74 | 1017.1 |
| 20260508151053 | 61 | 0 | 0.0 | 3.0 | 0.00 | 0.00 | 0.00 | 76 | 1016.8 |
| 20260508150555 | 61 | 0 | 1.0 | 3.0 | 0.00 | 0.00 | 0.00 | 76 | 1017.1 |
| 20260508150111 | 60 | 335 | 0.0 | 3.0 | 0.00 | 0.00 | 0.00 | 78 | 1016.9 |
| 20260508145554 | 60 | 331 | 0.0 | 2.0 | 0.00 | 0.00 | 0.00 | 81 | 1016.9 |
| 20260508145054 | 60 | 0 | 1.0 | 4.0 | 0.00 | 0.00 | 0.00 | 81 | 1017.0 |
| 20260508144608 | 60 | 0 | 0.0 | 4.0 | 0.00 | 0.00 | 0.00 | 86 | 1017.0 |
| 20260508144054 | 60 | 0 | 0.0 | 3.0 | 0.00 | 0.00 | 0.00 | 83 | 1017.1 |
| 20260508143550 | 59 | 323 | 0.0 | 2.0 | 0.00 | 0.00 | 0.00 | 86 | 1017.1 |
| 20260508143114 | 59 | 325 | 0.0 | 2.0 | 0.00 | 0.00 | 0.00 | 87 | 1017.2 |
| 20260508142551 | 59 | 0 | 0.0 | 2.0 | 0.00 | 0.00 | 0.00 | 87 | 1017.2 |
| 20260508142051 | 58 | 298 | 1.0 | 2.0 | 0.00 | 0.00 | 0.00 | 87 | 1017.2 |
| 20260508141602 | 58 | 305 | 0.0 | 3.0 | 0.00 | 0.00 | 0.00 | 88 | 1017.2 |
| 20260508141052 | 58 | 0 | 0.0 | 3.0 | 0.00 | 0.00 | 0.00 | 86 | 1017.1 |
| 20260508140550 | 57 | 86 | 0.0 | 2.0 | 0.00 | 0.00 | 0.00 | 89 | 1017.2 |
| 20260508140106 | 57 | 281 | 1.0 | 2.0 | 0.00 | 0.00 | 0.00 | 89 | 1017.2 |
| 20260508135554 | 56 | 184 | 0.0 | 1.0 | 0.00 | 0.00 | 0.00 | 90 | 1017.1 |
| 20260508135052 | 56 | 91 | 0.0 | 2.0 | 0.00 | 0.00 | 0.00 | 91 | 1017.1 |
| 20260508134557 | 55 | 0 | 0.0 | 2.0 | 0.00 | 0.00 | 0.00 | 93 | 1017.1 |
| 20260508134053 | 54 | 41 | 1.0 | 2.0 | 0.00 | 0.00 | 0.00 | 93 | 1017.2 |
| 20260508133550 | 54 | 352 | 0.0 | 2.0 | 0.00 | 0.00 | 0.00 | 93 | 1017.2 |
| 20260508133107 | 53 | 0 | 0.0 | 3.0 | 0.00 | 0.00 | 0.00 | 93 | 1017.4 |
| 20260508132554 | 53 | 0 | 0.0 | 3.0 | 0.00 | 0.00 | 0.00 | 93 | 1017.3 |
| 20260508132054 | 52 | 0 | 0.0 | 2.0 | 0.00 | 0.00 | 0.00 | 95 | 1017.3 |
| 20260508131601 | 51 | 88 | 0.0 | 2.0 | 0.00 | 0.00 | 0.00 | 96 | 1017.4 |
| 20260508131051 | 50 | 0 | 0.0 | 2.0 | 0.00 | 0.00 | 0.00 | 96 | 1017.5 |
| 20260508130550 | 50 | 88 | 0.0 | 2.0 | 0.00 | 0.00 | 0.00 | 97 | 1017.5 |
| 20260508130100 | 49 | 72 | 1.0 | 3.0 | 0.00 | 0.00 | 0.00 | 97 | 1017.6 |
| 20260508125551 | 49 | 86 | 1.0 | 3.0 | 0.00 | 0.04 | 0.00 | 96 | 1017.7 |
| 20260508125050 | 48 | 0 | 0.0 | 1.0 | 0.00 | 0.04 | 0.00 | 97 | 1017.6 |
| 20260508124558 | 47 | 0 | 0.0 | 0.0 | 0.00 | 0.04 | 0.00 | 97 | 1017.6 |
| 20260508124050 | 46 | 0 | 0.0 | 0.0 | 0.00 | 0.04 | 0.00 | 96 | 1017.4 |
| 20260508123550 | 46 | 0 | 0.0 | 0.0 | 0.00 | 0.04 | 0.00 | 96 | 1017.4 |
| 20260508123056 | 46 | 0 | 0.0 | 0.0 | 0.00 | 0.04 | 0.00 | 96 | 1017.5 |
| 20260508122553 | 45 | 0 | 0.0 | 0.0 | 0.00 | 0.04 | 0.00 | 96 | 1017.3 |
| 20260508122054 | 45 | 0 | 0.0 | 0.0 | 0.00 | 0.04 | 0.00 | 95 | 1017.3 |
| 20260508121554 | 45 | 0 | 0.0 | 0.0 | 0.00 | 0.04 | 0.00 | 95 | 1017.3 |
| 20260508121049 | 45 | 0 | 0.0 | 0.0 | 0.00 | 0.04 | 0.00 | 95 | 1017.3 |
| 20260508120550 | 44 | 0 | 0.0 | 0.0 | 0.00 | 0.04 | 0.00 | 95 | 1016.9 |
| 20260508120052 | 44 | 0 | 0.0 | 0.0 | 0.00 | 0.04 | 0.00 | 95 | 1016.8 |
| 20260508115557 | 44 | 0 | 0.0 | 0.0 | 0.00 | 0.17 | 0.00 | 95 | 1016.8 |
| 20260508115054 | 44 | 0 | 0.0 | 0.0 | 0.00 | 0.17 | 0.00 | 95 | 1016.7 |
| 20260508114553 | 44 | 0 | 0.0 | 0.0 | 0.00 | 0.17 | 0.00 | 95 | 1016.6 |
| 20260508114051 | 44 | 0 | 0.0 | 0.0 | 0.00 | 0.17 | 0.00 | 95 | 1016.5 |
| 20260508113555 | 43 | 0 | 0.0 | 0.0 | 0.00 | 0.17 | 0.00 | 95 | 1016.3 |
| 20260508113106 | 43 | 0 | 0.0 | 0.0 | 0.00 | 0.17 | 0.00 | 95 | 1016.4 |
| 20260508112551 | 43 | 0 | 0.0 | 0.0 | 0.00 | 0.17 | 0.00 | 94 | 1016.1 |
| 20260508112054 | 43 | 0 | 0.0 | 0.0 | 0.00 | 0.17 | 0.00 | 94 | 1016.2 |
| 20260508111604 | 43 | 0 | 0.0 | 0.0 | 0.00 | 0.17 | 0.00 | 94 | 1016.0 |
| 20260508111050 | 43 | 0 | 0.0 | 0.0 | 0.00 | 0.17 | 0.00 | 94 | 1016.0 |
| 20260508110550 | 43 | 0 | 0.0 | 0.0 | 0.00 | 0.17 | 0.00 | 94 | 1016.0 |
| 20260508110057 | 44 | 0 | 0.0 | 0.0 | 0.00 | 0.17 | 0.00 | 94 | 1015.8 |
| 20260508105553 | 44 | 0 | 0.0 | 0.0 | 0.00 | 0.32 | 0.00 | 94 | 1015.6 |
| 20260508105051 | 44 | 0 | 0.0 | 0.0 | 0.00 | 0.32 | 0.00 | 94 | 1015.6 |
| 20260508104600 | 44 | 0 | 0.0 | 0.0 | 0.00 | 0.32 | 0.00 | 94 | 1015.5 |
| 20260508104054 | 44 | 0 | 0.0 | 0.0 | 0.00 | 0.32 | 0.00 | 94 | 1015.4 |
| 20260508103554 | 44 | 0 | 0.0 | 0.0 | 0.00 | 0.32 | 0.00 | 94 | 1015.2 |
| 20260508103055 | 44 | 0 | 0.0 | 0.0 | 0.00 | 0.32 | 0.00 | 94 | 1015.0 |
| 20260508102553 | 44 | 0 | 0.0 | 0.0 | 0.00 | 0.32 | 0.00 | 94 | 1015.1 |
| 20260508102056 | 44 | 0 | 0.0 | 0.0 | 0.00 | 0.32 | 0.00 | 94 | 1015.0 |
| 20260508101555 | 44 | 0 | 0.0 | 0.0 | 0.00 | 0.32 | 0.00 | 94 | 1014.9 |
| 20260508101051 | 44 | 0 | 0.0 | 0.0 | 0.00 | 0.32 | 0.00 | 94 | 1015.2 |
| 20260508100550 | 45 | 0 | 0.0 | 0.0 | 0.00 | 0.32 | 0.00 | 94 | 1014.9 |
| 20260508100056 | 45 | 0 | 0.0 | 0.0 | 0.00 | 0.32 | 0.00 | 93 | 1014.9 |
| 20260508095555 | 45 | 0 | 0.0 | 0.0 | 0.00 | 0.35 | 0.00 | 93 | 1015.0 |
| 20260508095054 | 45 | 0 | 0.0 | 0.0 | 0.00 | 0.35 | 0.00 | 93 | 1014.9 |
| 20260508094554 | 45 | 0 | 0.0 | 0.0 | 0.00 | 0.35 | 0.00 | 93 | 1014.9 |
| 20260508094054 | 45 | 0 | 0.0 | 0.0 | 0.00 | 0.35 | 0.00 | 93 | 1014.9 |
| 20260508093554 | 45 | 0 | 0.0 | 0.0 | 0.00 | 0.35 | 0.00 | 93 | 1014.8 |
| 20260508093057 | 45 | 0 | 0.0 | 0.0 | 0.00 | 0.35 | 0.00 | 93 | 1014.8 |
| 20260508092553 | 46 | 0 | 0.0 | 0.0 | 0.00 | 0.35 | 0.00 | 93 | 1014.8 |
| 20260508092053 | 46 | 0 | 0.0 | 0.0 | 0.00 | 0.35 | 0.00 | 93 | 1014.8 |
| 20260508091607 | 46 | 0 | 0.0 | 0.0 | 0.00 | 0.35 | 0.00 | 93 | 1014.6 |
| 20260508091051 | 46 | 0 | 0.0 | 0.0 | 0.00 | 0.35 | 0.00 | 93 | 1014.7 |
| 20260508090554 | 46 | 0 | 0.0 | 0.0 | 0.00 | 0.35 | 0.00 | 93 | 1014.7 |
| 20260508090056 | 46 | 0 | 0.0 | 0.0 | 0.00 | 0.35 | 0.00 | 93 | 1014.4 |
| 20260508085550 | 46 | 0 | 0.0 | 0.0 | 0.00 | 0.36 | 0.00 | 93 | 1014.7 |
| 20260508085053 | 46 | 0 | 0.0 | 0.0 | 0.00 | 0.36 | 0.00 | 93 | 1014.6 |
| 20260508084608 | 46 | 0 | 0.0 | 0.0 | 0.00 | 0.36 | 0.00 | 93 | 1014.6 |
| 20260508084051 | 46 | 0 | 0.0 | 0.0 | 0.00 | 0.36 | 0.00 | 92 | 1014.7 |
| 20260508083550 | 46 | 0 | 0.0 | 0.0 | 0.00 | 0.36 | 0.00 | 92 | 1014.7 |
| 20260508083101 | 46 | 0 | 0.0 | 0.0 | 0.00 | 0.36 | 0.00 | 92 | 1014.6 |
| 20260508082554 | 46 | 0 | 0.0 | 0.0 | 0.00 | 0.36 | 0.00 | 92 | 1014.6 |
| 20260508082051 | 46 | 0 | 0.0 | 0.0 | 0.00 | 0.36 | 0.00 | 92 | 1014.6 |
| 20260508081554 | 47 | 0 | 0.0 | 0.0 | 0.00 | 0.36 | 0.00 | 92 | 1014.6 |
| 20260508081050 | 47 | 0 | 0.0 | 0.0 | 0.00 | 0.36 | 0.00 | 91 | 1014.7 |
| 20260508080554 | 47 | 0 | 0.0 | 0.0 | 0.00 | 0.36 | 0.00 | 91 | 1014.6 |
| 20260508080106 | 47 | 0 | 0.0 | 0.0 | 0.00 | 0.36 | 0.00 | 91 | 1014.7 |
| 20260508075551 | 48 | 0 | 0.0 | 0.0 | 0.00 | 0.36 | 0.00 | 91 | 1014.7 |
| 20260508075051 | 48 | 0 | 0.0 | 0.0 | 0.00 | 0.36 | 0.00 | 91 | 1014.6 |
| 20260508074604 | 48 | 0 | 0.0 | 0.0 | 0.00 | 0.36 | 0.00 | 90 | 1014.6 |
| 20260508074050 | 48 | 0 | 0.0 | 0.0 | 0.00 | 0.36 | 0.00 | 90 | 1014.5 |
| 20260508073554 | 49 | 0 | 0.0 | 0.0 | 0.00 | 0.36 | 0.00 | 90 | 1014.6 |
| 20260508073100 | 49 | 0 | 0.0 | 0.0 | 0.00 | 0.36 | 0.00 | 90 | 1014.7 |
| 20260508072555 | 49 | 0 | 0.0 | 0.0 | 0.00 | 0.36 | 0.00 | 91 | 1014.8 |
| 20260508072050 | 49 | 0 | 0.0 | 0.0 | 0.00 | 0.36 | 0.00 | 90 | 1014.7 |
| 20260508071556 | 49 | 0 | 0.0 | 0.0 | 0.00 | 0.36 | 0.00 | 91 | 1014.5 |
| 20260508071103 | 49 | 0 | 0.0 | 0.0 | 0.00 | 0.36 | 0.00 | 91 | 1014.6 |
| 20260508070550 | 49 | 0 | 0.0 | 0.0 | 0.00 | 0.36 | 0.00 | 91 | 1014.7 |
| 20260508065552 | 49 | 0 | 0.0 | 0.0 | 0.00 | 0.50 | 0.00 | 92 | 1014.6 |
| 20260508065053 | 49 | 0 | 0.0 | 0.0 | 0.00 | 0.50 | 0.00 | 92 | 1014.7 |
| 20260508064558 | 49 | 0 | 0.0 | 0.0 | 0.00 | 0.50 | 0.00 | 92 | 1014.8 |
| 20260508064051 | 49 | 0 | 0.0 | 0.0 | 0.00 | 0.50 | 0.00 | 92 | 1014.8 |
| 20260508063551 | 49 | 0 | 0.0 | 0.0 | 0.00 | 0.50 | 0.00 | 92 | 1014.8 |
| 20260508063059 | 50 | 0 | 0.0 | 0.0 | 0.00 | 0.50 | 0.00 | 93 | 1014.9 |
| 20260508062550 | 50 | 0 | 0.0 | 0.0 | 0.00 | 0.50 | 0.00 | 93 | 1014.9 |
| 20260508062054 | 50 | 0 | 0.0 | 0.0 | 0.00 | 0.50 | 0.00 | 93 | 1014.9 |
| 20260508061555 | 50 | 0 | 0.0 | 0.0 | 0.00 | 0.50 | 0.00 | 93 | 1015.0 |
| 20260508061052 | 50 | 0 | 0.0 | 0.0 | 0.00 | 0.50 | 0.00 | 93 | 1014.9 |
| 20260508060553 | 50 | 0 | 0.0 | 0.0 | 0.00 | 0.50 | 0.00 | 93 | 1015.0 |
| 20260508060100 | 50 | 0 | 0.0 | 0.0 | 0.00 | 0.50 | 0.00 | 93 | 1015.0 |
| 20260508055551 | 50 | 0 | 0.0 | 0.0 | 0.00 | 0.62 | 0.00 | 93 | 1014.8 |
| 20260508055053 | 51 | 0 | 0.0 | 0.0 | 0.00 | 0.62 | 0.00 | 94 | 1014.8 |
| 20260508054559 | 51 | 0 | 0.0 | 0.0 | 0.00 | 0.62 | 0.00 | 94 | 1014.9 |
| 20260508054050 | 51 | 0 | 0.0 | 0.0 | 0.00 | 0.62 | 0.00 | 94 | 1014.7 |
| 20260508053555 | 51 | 0 | 0.0 | 0.0 | 0.00 | 0.62 | 0.00 | 93 | 1014.7 |
| 20260508053103 | 51 | 0 | 0.0 | 0.0 | 0.00 | 0.62 | 0.00 | 93 | 1014.6 |
| 20260508052550 | 51 | 0 | 0.0 | 0.0 | 0.00 | 0.62 | 0.00 | 93 | 1014.8 |
| 20260508052052 | 51 | 0 | 0.0 | 0.0 | 0.00 | 0.62 | 0.00 | 93 | 1014.8 |
| 20260508051612 | 51 | 0 | 0.0 | 0.0 | 0.00 | 0.62 | 0.00 | 93 | 1014.9 |
| 20260508051055 | 51 | 0 | 0.0 | 0.0 | 0.00 | 0.62 | 0.00 | 93 | 1015.0 |
| 20260508050553 | 51 | 0 | 0.0 | 0.0 | 0.00 | 0.62 | 0.00 | 93 | 1014.9 |
| 20260508050111 | 51 | 0 | 0.0 | 0.0 | 0.00 | 0.62 | 0.00 | 93 | 1015.0 |
| 20260508045552 | 51 | 0 | 0.0 | 0.0 | 0.00 | 0.87 | 0.00 | 93 | 1014.9 |
| 20260508045053 | 51 | 0 | 0.0 | 0.0 | 0.00 | 0.87 | 0.00 | 93 | 1014.9 |
| 20260508044557 | 51 | 0 | 0.0 | 0.0 | 0.00 | 0.87 | 0.00 | 94 | 1014.8 |
| 20260508044051 | 51 | 0 | 0.0 | 0.0 | 0.00 | 0.87 | 0.00 | 93 | 1015.0 |
| 20260508043550 | 52 | 0 | 0.0 | 0.0 | 0.00 | 0.87 | 0.00 | 93 | 1014.9 |
| 20260508043101 | 52 | 0 | 0.0 | 0.0 | 0.00 | 0.87 | 0.00 | 94 | 1014.6 |
| 20260508042554 | 52 | 0 | 0.0 | 0.0 | 0.00 | 0.87 | 0.00 | 94 | 1014.7 |
| 20260508042050 | 52 | 0 | 0.0 | 0.0 | 0.00 | 0.87 | 0.00 | 94 | 1014.7 |
| 20260508041601 | 52 | 0 | 0.0 | 0.0 | 0.00 | 0.87 | 0.00 | 94 | 1014.6 |
| 20260508041050 | 52 | 0 | 0.0 | 0.0 | 0.00 | 0.87 | 0.00 | 94 | 1014.6 |
| 20260508040550 | 52 | 0 | 0.0 | 0.0 | 0.00 | 0.87 | 0.00 | 94 | 1014.4 |
| 20260508035554 | 52 | 0 | 0.0 | 0.0 | 0.00 | 0.98 | 0.87 | 94 | 1014.5 |
| 20260508035050 | 53 | 0 | 0.0 | 0.0 | 0.00 | 0.98 | 0.87 | 94 | 1014.7 |
| 20260508034555 | 53 | 0 | 0.0 | 0.0 | 0.00 | 0.98 | 0.87 | 93 | 1014.5 |
| 20260508034053 | 53 | 0 | 0.0 | 0.0 | 0.00 | 0.98 | 0.87 | 93 | 1014.5 |
| 20260508033553 | 53 | 0 | 0.0 | 0.0 | 0.00 | 0.98 | 0.87 | 94 | 1014.4 |
| 20260508033051 | 53 | 0 | 0.0 | 0.0 | 0.00 | 0.98 | 0.87 | 94 | 1014.5 |
| 20260508032551 | 53 | 0 | 0.0 | 0.0 | 0.00 | 0.98 | 0.87 | 94 | 1014.4 |
| 20260508032052 | 53 | 0 | 0.0 | 0.0 | 0.00 | 0.98 | 0.87 | 94 | 1014.6 |
| 20260508031553 | 53 | 0 | 0.0 | 0.0 | 0.00 | 0.98 | 0.87 | 94 | 1014.6 |
| 20260508031053 | 53 | 0 | 0.0 | 0.0 | 0.00 | 0.98 | 0.87 | 94 | 1014.4 |
| 20260508030550 | 53 | 0 | 0.0 | 0.0 | 0.00 | 0.98 | 0.87 | 94 | 1014.7 |
| 20260508030057 | 53 | 0 | 0.0 | 0.0 | 0.00 | 0.98 | 0.87 | 93 | 1014.7 |
| 20260508025552 | 53 | 0 | 0.0 | 0.0 | 0.00 | 0.98 | 0.87 | 94 | 1014.7 |
| 20260508025050 | 53 | 0 | 0.0 | 0.0 | 0.00 | 0.98 | 0.87 | 94 | 1014.3 |
| 20260508024554 | 53 | 0 | 0.0 | 0.0 | 0.00 | 0.98 | 0.87 | 94 | 1014.6 |
| 20260508024051 | 53 | 0 | 0.0 | 0.0 | 0.00 | 0.98 | 0.87 | 94 | 1014.6 |
| 20260508023550 | 53 | 0 | 0.0 | 0.0 | 0.00 | 0.98 | 0.87 | 94 | 1014.4 |
| 20260508023051 | 53 | 0 | 0.0 | 0.0 | 0.00 | 0.98 | 0.87 | 94 | 1014.6 |
| 20260508022553 | 53 | 0 | 0.0 | 0.0 | 0.00 | 0.98 | 0.87 | 94 | 1014.4 |
| 20260508022051 | 53 | 0 | 0.0 | 0.0 | 0.00 | 0.98 | 0.87 | 93 | 1014.2 |
| 20260508021555 | 53 | 0 | 0.0 | 0.0 | 0.00 | 0.98 | 0.87 | 93 | 1014.4 |
| 20260508021054 | 53 | 0 | 0.0 | 0.0 | 0.00 | 0.98 | 0.87 | 94 | 1014.4 |
| 20260508020553 | 53 | 0 | 0.0 | 0.0 | 0.00 | 0.98 | 0.87 | 93 | 1014.5 |
| 20260508020056 | 53 | 0 | 0.0 | 0.0 | 0.00 | 0.98 | 0.87 | 93 | 1014.3 |
| 20260508015551 | 53 | 0 | 0.0 | 0.0 | 0.00 | 0.99 | 0.87 | 93 | 1014.1 |
| 20260508015050 | 53 | 0 | 0.0 | 0.0 | 0.00 | 0.99 | 0.87 | 93 | 1014.1 |
| 20260508014552 | 54 | 0 | 0.0 | 0.0 | 0.00 | 0.99 | 0.87 | 93 | 1014.2 |
| 20260508014052 | 54 | 0 | 0.0 | 0.0 | 0.00 | 0.99 | 0.87 | 93 | 1014.2 |
| 20260508013550 | 54 | 0 | 0.0 | 0.0 | 0.00 | 0.99 | 0.87 | 93 | 1014.2 |
| 20260508013056 | 54 | 0 | 0.0 | 0.0 | 0.00 | 0.99 | 0.87 | 92 | 1014.0 |